Time,TemperatureF,DewpointF,PressureIn,WindDirection,WindDirectionDegrees,WindSpeedMPH,WindSpeedGustMPH,Humidity,HourlyPrecipIn,Conditions,Clouds,dailyrainin,SoftwareType,DateUTC
2013-07-19 00:44:00,74.0,73.0,30.11,ESE,123,0.0,0.0,98,0.01,,,1.30,,2013-07-19 04:44:00,
2013-07-19 00:52:00,74.0,73.0,30.11,ESE,123,0.0,0.0,98,0.01,,,1.30,,2013-07-19 04:52:00,
2013-07-19 01:53:00,74.0,73.0,30.11,ESE,123,0.0,0.0,98,0.00,,,1.30,,2013-07-19 05:53:00,
2013-07-19 02:01:00,74.0,73.0,30.11,ESE,123,0.0,0.0,98,0.00,,,1.30,,2013-07-19 06:01:00,
2013-07-19 02:11:00,74.0,73.0,30.11,ESE,122,0.0,0.0,98,0.00,,,1.30,,2013-07-19 06:11:00,
2013-07-19 02:22:00,74.0,73.0,30.11,ESE,123,0.0,0.0,98,0.00,,,1.30,,2013-07-19 06:22:00,
2013-07-19 02:33:00,74.0,73.0,30.10,ESE,122,0.0,0.0,98,0.00,,,1.30,,2013-07-19 06:33:00,
2013-07-19 02:43:00,74.0,73.0,30.11,ESE,122,0.0,0.0,98,0.00,,,1.30,,2013-07-19 06:43:00,
2013-07-19 02:52:00,74.0,73.0,30.11,ESE,122,0.0,0.0,98,0.00,,,1.30,,2013-07-19 06:52:00,
2013-07-19 03:01:00,74.0,73.0,30.11,ESE,123,0.0,0.0,98,0.00,,,1.30,,2013-07-19 07:01:00,
2013-07-19 03:32:00,74.0,73.0,30.10,ESE,122,0.0,0.0,98,0.00,,,1.30,,2013-07-19 07:32:00,
2013-07-19 03:43:00,74.0,73.0,30.11,ESE,122,0.0,0.0,98,0.00,,,1.30,,2013-07-19 07:43:00,
2013-07-19 03:53:00,74.0,73.0,30.11,ESE,122,0.0,0.0,98,0.00,,,1.30,,2013-07-19 07:53:00,
2013-07-19 04:01:00,74.0,73.0,30.10,ESE,122,0.0,0.0,98,0.00,,,1.30,,2013-07-19 08:01:00,
2013-07-19 04:11:00,74.0,73.0,30.10,ESE,123,0.0,0.0,98,0.00,,,1.30,,2013-07-19 08:11:00,
2013-07-19 04:22:00,74.0,73.0,30.11,ESE,123,0.0,0.0,98,0.00,,,1.30,,2013-07-19 08:22:00,
2013-07-19 04:33:00,74.0,73.0,30.10,ESE,122,0.0,0.0,98,0.00,,,1.30,,2013-07-19 08:33:00,
2013-07-19 04:43:00,74.0,73.0,30.10,ESE,123,0.0,0.0,98,0.00,,,1.30,,2013-07-19 08:43:00,
2013-07-19 04:52:00,74.0,73.0,30.10,ESE,122,0.0,0.0,98,0.00,,,1.30,,2013-07-19 08:52:00,
2013-07-19 05:02:00,74.0,73.0,30.10,ESE,123,0.0,0.0,98,0.00,,,1.30,,2013-07-19 09:02:00,
2013-07-19 05:22:00,74.0,74.0,30.10,ESE,122,0.0,0.0,99,0.00,,,1.30,,2013-07-19 09:22:00,
2013-07-19 05:32:00,74.0,73.0,30.10,ESE,123,0.0,0.0,98,0.00,,,1.30,,2013-07-19 09:32:00,
2013-07-19 06:01:00,74.0,73.0,30.10,ESE,123,0.0,0.0,98,0.00,,,1.30,,2013-07-19 10:01:00,
2013-07-19 06:32:00,74.0,73.0,30.10,ESE,123,0.0,0.0,98,0.00,,,1.30,,2013-07-19 10:32:00,
2013-07-19 06:43:00,74.0,73.0,30.10,ESE,123,0.0,0.0,98,0.00,,,1.30,,2013-07-19 10:43:00,
2013-07-19 07:43:00,75.0,75.0,30.11,NE,43,0.0,1.0,99,0.00,,,1.30,,2013-07-19 11:43:00,
2013-07-19 08:43:00,77.0,77.0,30.13,NNE,20,0.0,0.0,99,0.00,,,1.30,,2013-07-19 12:43:00,
2013-07-19 10:43:00,82.0,79.0,30.14,ESE,112,1.0,4.0,90,0.00,,,1.20,,2013-07-19 14:43:00,
2013-07-19 10:52:00,82.0,78.0,30.14,East,86,1.0,8.0,88,0.00,,,1.20,,2013-07-19 14:52:00,
2013-07-19 11:23:00,84.0,78.0,30.15,East,101,4.0,8.0,81,0.00,,,1.14,,2013-07-19 15:23:00,
2013-07-19 11:32:00,84.0,78.0,30.14,North,11,3.0,9.0,81,0.00,,,1.14,,2013-07-19 15:32:00,
2013-07-19 11:43:00,85.0,78.0,30.15,SE,128,4.0,9.0,81,0.00,,,1.14,,2013-07-19 15:43:00,
2013-07-19 11:52:00,85.0,78.0,30.15,South,181,1.0,9.0,81,0.00,,,1.14,,2013-07-19 15:52:00,
2013-07-19 12:11:00,86.0,79.0,30.15,SE,141,2.0,11.0,79,0.00,,,1.14,,2013-07-19 16:11:00,
2013-07-19 12:52:00,88.0,77.0,30.13,East,81,2.0,11.0,70,0.00,,,1.04,,2013-07-19 16:52:00,
2013-07-19 13:22:00,89.0,78.0,30.13,ESE,115,2.0,7.0,70,0.00,,,1.04,,2013-07-19 17:22:00,
2013-07-19 13:32:00,89.0,77.0,30.13,SE,142,1.0,8.0,67,0.00,,,1.04,,2013-07-19 17:32:00,
2013-07-19 13:43:00,88.0,77.0,30.12,East,95,5.0,8.0,70,0.00,,,1.04,,2013-07-19 17:43:00,
2013-07-19 13:52:00,88.0,77.0,30.12,East,95,5.0,8.0,70,0.00,,,1.04,,2013-07-19 17:52:00,
2013-07-19 14:01:00,87.0,76.0,30.12,ESE,121,5.0,10.0,71,0.00,,,1.04,,2013-07-19 18:01:00,
2013-07-19 15:32:00,89.0,78.0,30.10,ESE,120,3.0,9.0,70,0.00,,,1.04,,2013-07-19 19:32:00,
2013-07-19 16:22:00,88.0,78.0,30.09,SE,126,2.0,8.0,73,0.00,,,1.04,,2013-07-19 20:22:00,
2013-07-19 16:43:00,88.0,79.0,30.08,ESE,109,3.0,9.0,74,0.00,,,1.04,,2013-07-19 20:43:00,
2013-07-19 18:42:00,87.0,78.0,30.07,ENE,75,1.0,7.0,75,0.00,,,0.09,,2013-07-19 22:42:00,
2013-07-19 18:52:00,87.0,78.0,30.07,ESE,108,2.0,8.0,76,0.00,,,0.09,,2013-07-19 22:52:00,
2013-07-19 19:11:00,86.0,78.0,30.06,East,91,1.0,7.0,77,0.00,,,0.09,,2013-07-19 23:11:00,
2013-07-19 19:43:00,85.0,78.0,30.08,SE,145,1.0,7.0,80,0.00,,,0.09,,2013-07-19 23:43:00,
2013-07-19 19:52:00,85.0,78.0,30.08,East,100,1.0,6.0,80,0.00,,,0.09,,2013-07-19 23:52:00,
2013-07-19 20:01:00,84.0,78.0,30.08,East,98,2.0,7.0,81,0.00,,,0.09,,2013-07-20 00:01:00,
2013-07-19 20:11:00,83.0,77.0,30.08,East,101,1.0,3.0,83,0.00,,,0.09,,2013-07-20 00:11:00,
2013-07-19 20:22:00,83.0,77.0,30.08,East,89,0.0,3.0,83,0.00,,,0.06,,2013-07-20 00:22:00,
2013-07-19 20:32:00,83.0,78.0,30.08,ESE,122,0.0,3.0,84,0.00,,,0.06,,2013-07-20 00:32:00,
2013-07-19 20:43:00,83.0,78.0,30.08,East,91,1.0,4.0,85,0.00,,,0.06,,2013-07-20 00:43:00,
2013-07-19 20:52:00,83.0,78.0,30.09,SE,133,1.0,3.0,85,0.00,,,0.06,,2013-07-20 00:52:00,
2013-07-19 21:01:00,82.0,77.0,30.10,East,89,0.0,3.0,86,0.00,,,0.06,,2013-07-20 01:01:00,
2013-07-19 21:11:00,82.0,77.0,30.10,East,87,0.0,5.0,86,0.00,,,0.06,,2013-07-20 01:11:00,
2013-07-19 21:22:00,82.0,77.0,30.11,East,91,1.0,4.0,86,0.00,,,0.01,,2013-07-20 01:22:00,
2013-07-19 21:32:00,82.0,77.0,30.11,East,80,0.0,4.0,86,0.00,,,0.01,,2013-07-20 01:32:00,
2013-07-19 21:52:00,82.0,78.0,30.11,East,89,0.0,5.0,87,0.00,,,0.01,,2013-07-20 01:52:00,
2013-07-19 22:02:00,82.0,78.0,30.12,East,84,1.0,4.0,87,0.00,,,0.01,,2013-07-20 02:02:00,
2013-07-19 22:11:00,82.0,78.0,30.12,East,101,1.0,3.0,87,0.00,,,0.01,,2013-07-20 02:11:00,
2013-07-19 22:33:00,82.0,78.0,30.14,East,84,1.0,3.0,88,0.00,,,0.01,,2013-07-20 02:33:00,
2013-07-19 22:43:00,82.0,78.0,30.13,East,81,1.0,4.0,88,0.00,,,0.01,,2013-07-20 02:43:00,